Regional Weather Roundup
Issued by NWS

Home | Current Version | Previous Version | Graphics & Text | Print | Product List | Glossary On
Versions: 1 2 3 4 5 6 7 8 9 10 11 12 13 14 15 16 17 18 19 20 21 22 23 24 25 26 27 28 29 30 31 32 33 34 35 36 37 38 39 40 41 42 43 44 45 46 47 48 49 50
000
ASUS44 KMEG 060800
RWRTN
TENNESSEE HOURLY STATE WEATHER ROUNDUP
NATIONAL WEATHER SERVICE MEMPHIS TN
300 AM CDT WED MAY 06 2015

TNZ002-004-019-021-049-052-054-088>092-060900-
WEST TENNESSEE

CITY           SKY/WX    TMP DP  RH WIND       PRES   REMARKS
MEMPHIS INTL   CLEAR     69  55  60 S8        30.12F
NWS MEMPHIS      N/A     60 N/A N/A MISG        N/A
JACKSON        CLEAR     55  53  93 CALM      30.15F
DYERSBURG      CLEAR     61  45  55 CALM      30.15F
PARIS          CLEAR     57  52  82 CALM      30.16F
LEXINGTON      CLEAR     55  54  94 CALM      30.15F
$$

TNZ008-025-027-028-033-062-065-066-060900-
NORTH MIDDLE TENNESSEE

CITY           SKY/WX    TMP DP  RH WIND       PRES   REMARKS
NASHVILLE      PTCLDY    64  57  78 CALM      30.19F
CLARKSVILLE    CLEAR     57  55  93 CALM      30.17F
COOKEVILLE     PTCLDY    59  57  94 CALM      30.21F
CROSSVILLE     CLOUDY    66  52  60 CALM      30.26S
$$

TNZ061-075-076-078-094-096-097-060900-
SOUTH MIDDLE TENNESSEE

CITY           SKY/WX    TMP DP  RH WIND       PRES   REMARKS
FAYETTEVILLE     N/A     57  54  88 SE3       30.20F
TULLAHOMA      CLOUDY    61  55  82 CALM      30.22F
WINCHESTER     PTCLDY    61  55  82 CALM      30.22F
MCMINNVILLE    CLOUDY    63  63 100 S17       30.21F
COLUMBIA       MOCLDY    57  55  94 CALM      30.17F
SHELBYVILLE    PTCLDY    61  59  94 E6        30.21S
$$

TNZ017-018-042-046-047-060900-
NORTHEAST TENNESSEE

CITY           SKY/WX    TMP DP  RH WIND       PRES   REMARKS
TRI CITIES     CLOUDY    62  56  80 CALM      30.25F
ELIZABETHTON   SUNNY     55  52  88 CALM      30.26F
$$

TNZ012-013-036-069-073-074-060900-
CENTRAL EAST TENNESSEE

CITY           SKY/WX    TMP DP  RH WIND       PRES   REMARKS
KNOXVILLE      PTCLDY    64  56  75 CALM      30.22S
OAK RIDGE      MOCLDY    64  59  83 CALM      30.24S
GATLINBURG     SUNNY     57  55  94 CALM      30.23S
$$

TNZ083-085-099-060900-
SOUTHEAST TENNESSEE

CITY           SKY/WX    TMP DP  RH WIND       PRES   REMARKS
CHATTANOOGA    CLEAR     62  57  83 CALM      30.22S
$$

SKY/WX REPORTED AS FAIR MEANS FEW OR NO CLOUDS BELOW
12 THOUSAND FEET.



USA.gov is the U.S. government's official web portal to all federal, state and local government web resources and services.